EWG182 EDDV-BKPR

Flight info

Callsign EWG182
Flight time 0h 50m
Altitude 37000
Route POVEL4F POVEL Z94 GALMA M736 RELKO DCT ARMUT DCT LAMSI DCT RINAV DCT ARBER ARBER1D
Aircraft A320/M-SDE3FGHIRWY/LB1

Departure

Time 2026-04-24 10:16
Airport Hannover Airport (EDDV)

Arrival

Time 2026-04-24 11:06
Airport Priština Adem Jashari International Airport (BKPR)
Time Latitude Longitude Altitude Speed Heading
2026-04-24 09:57 52.45839 9.69313 179 ft 0 kts 47°
2026-04-24 10:07 52.45837 9.69309 178 ft 3 kts 48°
2026-04-24 10:07 52.45823 9.69274 178 ft 4 kts 72°
2026-04-24 10:08 52.45819 9.69232 178 ft 4 kts 99°
2026-04-24 10:08 52.45827 9.69191 178 ft 4 kts 123°
2026-04-24 10:08 52.45840 9.69166 178 ft 0 kts 141°
2026-04-24 10:11 52.45838 9.69169 178 ft 2 kts 141°
2026-04-24 10:11 52.45809 9.69206 178 ft 8 kts 142°
2026-04-24 10:11 52.45748 9.69174 178 ft 12 kts 211°
2026-04-24 10:11 52.45649 9.69151 178 ft 15 kts 165°
2026-04-24 10:12 52.45619 9.69225 179 ft 7 kts 92°
2026-04-24 10:12 52.45617 9.69320 179 ft 11 kts 92°
2026-04-24 10:12 52.45612 9.69474 178 ft 16 kts 93°
2026-04-24 10:12 52.45607 9.69649 179 ft 15 kts 92°
2026-04-24 10:13 52.45603 9.69806 179 ft 13 kts 92°
2026-04-24 10:13 52.45598 9.69980 178 ft 18 kts 92°
2026-04-24 10:13 52.45592 9.70208 179 ft 21 kts 92°
2026-04-24 10:13 52.45586 9.70446 178 ft 21 kts 92°
2026-04-24 10:14 52.45579 9.70666 179 ft 19 kts 92°
2026-04-24 10:14 52.45574 9.70871 179 ft 17 kts 92°
2026-04-24 10:14 52.45560 9.71030 179 ft 10 kts 114°
2026-04-24 10:14 52.45523 9.71091 179 ft 6 kts 152°
2026-04-24 10:15 52.45469 9.71099 181 ft 9 kts 181°
2026-04-24 10:15 52.45424 9.71074 202 ft 4 kts 218°
2026-04-24 10:15 52.45405 9.71017 188 ft 8 kts 259°
2026-04-24 10:15 52.45410 9.70905 185 ft 16 kts 274°
2026-04-24 10:16 52.45423 9.70361 181 ft 83 kts 272°
2026-04-24 10:16 52.45460 9.69083 197 ft 139 kts 272°
2026-04-24 10:16 52.45497 9.67471 807 ft 139 kts 272°
2026-04-24 10:16 52.45536 9.65873 1500 ft 145 kts 274°
2026-04-24 10:17 52.45587 9.64075 1819 ft 168 kts 275°
2026-04-24 10:17 52.45646 9.62054 2201 ft 186 kts 275°
2026-04-24 10:17 52.45704 9.59838 2712 ft 200 kts 276°
2026-04-24 10:17 52.45759 9.57496 3353 ft 210 kts 276°
2026-04-24 10:18 52.45709 9.55079 4059 ft 220 kts 259°
2026-04-24 10:18 52.44919 9.52877 4777 ft 234 kts 226°
2026-04-24 10:18 52.43502 9.51443 5422 ft 245 kts 210°
2026-04-24 10:18 52.42003 9.50106 6183 ft 246 kts 212°
2026-04-24 10:19 52.40508 9.48707 6908 ft 249 kts 213°
2026-04-24 10:19 52.38994 9.47286 7595 ft 253 kts 208°
2026-04-24 10:19 52.37277 9.46591 8251 ft 260 kts 177°
2026-04-24 10:19 52.35544 9.47359 8887 ft 264 kts 147°
2026-04-24 10:20 52.34222 9.49509 9179 ft 278 kts 113°
2026-04-24 10:20 52.33472 9.52510 9578 ft 293 kts 105°
2026-04-24 10:20 52.32754 9.55674 10266 ft 300 kts 106°
2026-04-24 10:20 52.32006 9.58972 10581 ft 321 kts 106°
2026-04-24 10:21 52.31195 9.62515 10816 ft 343 kts 107°
2026-04-24 10:21 52.30336 9.66208 11368 ft 352 kts 108°
2026-04-24 10:21 52.29461 9.69931 12036 ft 356 kts 108°
2026-04-24 10:21 52.28856 9.72489 12502 ft 359 kts 108°
2026-04-24 10:22 52.27652 9.77567 13400 ft 365 kts 109°
2026-04-24 10:22 52.26729 9.81451 14067 ft 369 kts 109°
2026-04-24 10:22 52.26100 9.84100 14459 ft 371 kts 109°
2026-04-24 10:22 52.25191 9.88064 15042 ft 374 kts 104°
2026-04-24 10:23 52.24616 9.92210 15626 ft 376 kts 98°
2026-04-24 10:23 52.24101 9.96424 16221 ft 380 kts 99°
2026-04-24 10:23 52.23564 10.00671 16818 ft 383 kts 100°
2026-04-24 10:23 52.23020 10.04890 17393 ft 387 kts 100°
2026-04-24 10:24 52.22459 10.09199 17958 ft 391 kts 100°
2026-04-24 10:24 52.21896 10.13547 18515 ft 394 kts 100°
2026-04-24 10:24 52.21330 10.17940 19013 ft 397 kts 100°
2026-04-24 10:24 52.20761 10.22365 19496 ft 400 kts 100°
2026-04-24 10:25 52.20191 10.26821 19976 ft 404 kts 100°
2026-04-24 10:25 52.19615 10.31319 20447 ft 407 kts 100°
2026-04-24 10:25 52.19032 10.35846 20913 ft 410 kts 101°
2026-04-24 10:25 52.18438 10.40411 21385 ft 413 kts 100°
2026-04-24 10:26 52.17839 10.45003 21837 ft 416 kts 100°
2026-04-24 10:26 52.17232 10.49642 22286 ft 420 kts 100°
2026-04-24 10:26 52.16618 10.54308 22720 ft 423 kts 101°
2026-04-24 10:26 52.15997 10.59012 23153 ft 426 kts 101°
2026-04-24 10:27 52.15367 10.63764 23584 ft 430 kts 101°
2026-04-24 10:27 52.14735 10.68535 23970 ft 433 kts 101°
2026-04-24 10:27 52.14049 10.73321 24325 ft 436 kts 106°
2026-04-24 10:27 52.12891 10.77893 24674 ft 440 kts 118°
2026-04-24 10:28 52.11186 10.82027 25027 ft 442 kts 130°
2026-04-24 10:28 52.09003 10.85556 25374 ft 443 kts 142°
2026-04-24 10:28 52.06436 10.88336 25691 ft 445 kts 153°
2026-04-24 10:28 52.03699 10.90700 26025 ft 447 kts 153°
2026-04-24 10:29 52.00978 10.93045 26344 ft 449 kts 153°
2026-04-24 10:29 51.98181 10.95460 26736 ft 450 kts 153°
2026-04-24 10:29 51.95448 10.97820 27075 ft 452 kts 153°
2026-04-24 10:29 51.92668 11.00217 27410 ft 454 kts 153°
2026-04-24 10:30 51.89877 11.02617 27742 ft 456 kts 153°
2026-04-24 10:30 51.87062 11.05032 28072 ft 458 kts 153°
2026-04-24 10:30 51.84235 11.07455 28405 ft 460 kts 153°
2026-04-24 10:30 51.81398 11.09879 28725 ft 462 kts 154°
2026-04-24 10:31 51.73150 11.16918 29611 ft 467 kts 153°
2026-04-24 10:31 51.61546 11.26770 30609 ft 476 kts 153°
2026-04-24 10:31 51.49751 11.36735 31768 ft 477 kts 153°
2026-04-24 10:31 51.44425 11.41220 32400 ft 474 kts 153°
2026-04-24 10:32 51.41431 11.43419 32719 ft 472 kts 161°
2026-04-24 10:32 51.38292 11.44896 33043 ft 469 kts 170°
2026-04-24 10:32 51.35069 11.45607 33358 ft 466 kts 179°
2026-04-24 10:32 51.31829 11.45898 33680 ft 466 kts 179°
2026-04-24 10:33 51.28584 11.46193 34002 ft 465 kts 179°
2026-04-24 10:33 51.25361 11.46494 34307 ft 464 kts 179°
2026-04-24 10:33 51.22179 11.46799 34588 ft 463 kts 178°
2026-04-24 10:33 51.10902 11.47905 35438 ft 463 kts 178°
2026-04-24 10:34 50.98533 11.53273 36361 ft 464 kts 158°
2026-04-24 10:34 50.86611 11.60861 37241 ft 461 kts 159°
2026-04-24 10:34 50.74744 11.68429 37166 ft 462 kts 159°
2026-04-24 10:35 50.66481 11.73714 37204 ft 459 kts 158°
2026-04-24 10:35 50.45076 11.87242 37165 ft 461 kts 158°
2026-04-24 10:36 50.21234 12.02167 37182 ft 460 kts 158°
2026-04-24 10:36 50.05544 12.11900 37163 ft 463 kts 158°
2026-04-24 10:37 49.85789 12.24054 37134 ft 461 kts 158°
2026-04-24 10:37 49.63667 12.42819 37125 ft 460 kts 140°
2026-04-24 10:38 49.43360 12.67062 37165 ft 462 kts 140°
2026-04-24 10:38 49.23045 12.91177 37156 ft 461 kts 140°
2026-04-24 10:39 49.02729 13.15065 37158 ft 460 kts 140°
2026-04-24 10:39 48.82405 13.38704 37182 ft 460 kts 140°
2026-04-24 10:40 48.61942 13.62084 37201 ft 461 kts 141°
2026-04-24 10:40 48.40942 13.84433 37190 ft 461 kts 141°
2026-04-24 10:41 48.19989 14.06648 37154 ft 461 kts 141°
2026-04-24 10:41 47.98953 14.28689 37180 ft 461 kts 141°
2026-04-24 10:42 47.77866 14.50579 37155 ft 462 kts 141°
2026-04-24 10:42 47.56743 14.72292 37148 ft 461 kts 141°
2026-04-24 10:43 47.35763 14.93616 37119 ft 459 kts 141°
2026-04-24 10:43 47.14714 15.14831 37114 ft 457 kts 141°
2026-04-24 10:44 46.93694 15.35772 37130 ft 456 kts 141°
2026-04-24 10:44 46.72669 15.56565 37121 ft 456 kts 141°
2026-04-24 10:45 46.51610 15.77165 37124 ft 456 kts 141°
2026-04-24 10:45 46.30557 15.97565 37140 ft 455 kts 141°
2026-04-24 10:46 46.09521 16.17760 37154 ft 454 kts 141°
2026-04-24 10:46 45.88488 16.37793 37167 ft 452 kts 141°
2026-04-24 10:47 45.67440 16.57600 37149 ft 451 kts 141°
2026-04-24 10:47 45.46477 16.77191 37142 ft 450 kts 141°
2026-04-24 10:48 45.25619 16.96485 37156 ft 449 kts 142°
2026-04-24 10:48 45.04669 17.15722 37131 ft 448 kts 142°
2026-04-24 10:49 44.83701 17.34783 37144 ft 448 kts 142°
2026-04-24 10:49 44.62697 17.53698 37130 ft 448 kts 142°
2026-04-24 10:50 44.41692 17.72471 37136 ft 447 kts 142°
2026-04-24 10:50 44.20694 17.91093 37134 ft 447 kts 143°
2026-04-24 10:51 43.99629 18.09590 37128 ft 447 kts 143°
2026-04-24 10:51 43.78558 18.27928 37111 ft 448 kts 143°
2026-04-24 10:52 43.57513 18.46096 37113 ft 448 kts 143°
2026-04-24 10:52 43.36342 18.64233 37082 ft 448 kts 144°
2026-04-24 10:53 43.15174 18.82212 37078 ft 449 kts 144°
2026-04-24 10:53 42.93868 19.00149 37088 ft 449 kts 144°
2026-04-24 10:54 42.72619 19.17921 37067 ft 448 kts 144°
2026-04-24 10:54 42.52533 19.34544 37072 ft 449 kts 145°
2026-04-24 10:55 42.47189 19.38954 37067 ft 449 kts 145°
2026-04-24 10:55 42.41850 19.43359 37066 ft 449 kts 145°
2026-04-24 10:56 42.30701 19.52513 37070 ft 450 kts 145°
2026-04-24 10:56 42.09205 19.70038 37064 ft 452 kts 145°
2026-04-24 10:56 42.01180 19.82127 35610 ft 435 kts 101°
2026-04-24 10:57 42.02294 19.97457 33466 ft 408 kts 72°
2026-04-24 10:57 42.05277 20.11938 31230 ft 393 kts 73°
2026-04-24 10:57 42.08023 20.25316 29069 ft 362 kts 72°
2026-04-24 10:57 42.10729 20.38469 27030 ft 358 kts 72°
2026-04-24 10:58 42.13633 20.50990 25144 ft 344 kts 60°
2026-04-24 10:58 42.18770 20.61666 23431 ft 335 kts 57°
2026-04-24 10:58 42.23760 20.72175 21550 ft 330 kts 56°
2026-04-24 10:58 42.28688 20.82514 19815 ft 325 kts 56°
2026-04-24 10:59 42.33535 20.92741 18139 ft 322 kts 56°
2026-04-24 10:59 42.38340 21.02914 16366 ft 319 kts 56°
2026-04-24 10:59 42.43096 21.12995 14665 ft 317 kts 56°
2026-04-24 10:59 42.44699 21.16418 14138 ft 316 kts 57°
2026-04-24 11:00 42.45523 21.19138 13729 ft 319 kts 76°
2026-04-24 11:00 42.45563 21.22189 13258 ft 324 kts 98°
2026-04-24 11:00 42.44773 21.24989 12801 ft 323 kts 120°
2026-04-24 11:00 42.43256 21.27217 12251 ft 323 kts 142°
2026-04-24 11:01 42.41233 21.28500 11670 ft 322 kts 166°
2026-04-24 11:01 42.39025 21.28669 11125 ft 317 kts 188°
2026-04-24 11:01 42.32259 21.23943 9171 ft 290 kts 253°
2026-04-24 11:01 42.34692 21.14887 7195 ft 267 kts 314°
2026-04-24 11:02 42.36687 21.11826 6409 ft 266 kts 312°
2026-04-24 11:02 42.37881 21.09968 5910 ft 258 kts 312°
2026-04-24 11:02 42.39039 21.08167 5458 ft 249 kts 312°
2026-04-24 11:02 42.40186 21.06493 5054 ft 236 kts 321°
2026-04-24 11:03 42.41548 21.05419 4752 ft 225 kts 341°
2026-04-24 11:03 42.43018 21.05031 4674 ft 209 kts 355°
2026-04-24 11:03 42.44448 21.04888 4405 ft 203 kts 355°
2026-04-24 11:03 42.45846 21.04750 4130 ft 198 kts 354°
2026-04-24 11:04 42.47180 21.04615 3819 ft 187 kts 355°
2026-04-24 11:04 42.48450 21.04486 3540 ft 181 kts 355°
2026-04-24 11:04 42.49682 21.04361 3251 ft 173 kts 355°
2026-04-24 11:04 42.50827 21.04247 3047 ft 156 kts 354°
2026-04-24 11:05 42.51876 21.04139 2746 ft 148 kts 356°
2026-04-24 11:05 42.52875 21.04034 2481 ft 139 kts 358°
2026-04-24 11:05 42.53840 21.03939 2278 ft 140 kts 357°
2026-04-24 11:05 42.54811 21.03840 2077 ft 138 kts 358°
2026-04-24 11:06 42.55753 21.03743 1903 ft 134 kts 357°
2026-04-24 11:06 42.56684 21.03644 1787 ft 130 kts 358°
2026-04-24 11:06 42.57450 21.03570 1776 ft 87 kts 355°
2026-04-24 11:06 42.57885 21.03528 1775 ft 44 kts 356°
2026-04-24 11:07 42.58256 21.03429 1776 ft 16 kts 286°
2026-04-24 11:07 42.58246 21.03278 1777 ft 16 kts 255°
2026-04-24 11:07 42.58192 21.03249 1776 ft 8 kts 178°
2026-04-24 11:08 42.58131 21.03256 1776 ft 11 kts 175°
2026-04-24 11:08 42.58033 21.03267 1776 ft 17 kts 176°
2026-04-24 11:08 42.57895 21.03281 1775 ft 21 kts 176°
2026-04-24 11:08 42.57755 21.03294 1776 ft 20 kts 175°
2026-04-24 11:09 42.57635 21.03306 1776 ft 10 kts 178°
2026-04-24 11:09 42.57585 21.03257 1775 ft 9 kts 236°
2026-04-24 11:09 42.57544 21.03208 1775 ft 7 kts 213°
2026-04-24 11:09 42.57517 21.03159 1778 ft 6 kts 251°
2026-04-24 11:10 42.57505 21.03111 1775 ft 5 kts 251°
2026-04-24 11:10 42.57502 21.03088 1775 ft 0 kts 270°